Terug naar catalogus

STARLINK-3805

ActiefCommunicatieVLEO
NORAD 52377·PAYLOAD·🇺🇸 United States

Gelanceerd Apr 29, 2022 vanaf Cape Canaveral Space Force Station

Loading…

Volgende Passages (komende 24 uur)

TLE

VersSource: CelesTrak SupGP

Epoch: Sep 15, 2026, 02:06 UTC

1 52377C 22045AY  26258.08798611 -.00030332  00000+0 -89631-3 0  2580
2 52377  53.1585  50.6728 0001206  85.0795 356.7474 15.34400702    17

Volg STARLINK-3805 in realtime met AllMySat

Download on the App Store